Voltar ao catálogo

KIKU 3

ETS 4

AtivoCiênciaHEO
NORAD 12295·PAYLOAD·🇯🇵 Japan

Lançado Feb 11, 1981 de Tanegashima Space Center

Loading…

Próximas Passagens (próximas 24 horas)

TLE

AtualizadoSource: Space-Track

Época: Sep 14, 2026, 01:12 UTC

1 12295U 81012A   26257.05031152  .00008167  00000-0  10495-2 0  9993
2 12295  28.4244 183.0590 4708975 304.3719  19.6335  6.12591159646639

Acompanhe KIKU 3 em tempo real com AllMySat

Download on the App Store